Location: Stilling
(56.0622°N, 9.9882°E)
Time: 12:23:34
(UTC+00:00)

Cosmos 1346 Rocket - Pass Details

Date: 13 July 2020
Orbit: 533 x 546 km, 81.2° (Epoch: 06 August)

Event Time Altitude Azimuth Distance (km) Brightness Sun altitude
Exits shadow 23:02:23 12° 214° (SW) 1,660 4.8 -12.1°
Maximum altitude 23:05:53 51° 290° (WNW) 686 3.4 -12.2°
Drops below altitude 10° 23:09:46 10° 7° (N) 1,806 6.9 -12.2°
Sets 23:12:00 0° 12° (NNE) 2,704 8.0 -12.2°
